Location: Huntsville
(41.2590°N, 111.7678°W)
Time: 11:24:42
(UTC+00:00)

Envisat - Pass Details

Date: 09 December 2021
Orbit: 764 x 766 km, 98.2° (Epoch: 28 January)

Event Time Altitude Azimuth Distance (km) Brightness Sun altitude
Rises 00:19:01 0° 190° (S) 3,217 6.8 -4.3°
Reaches altitude 10° 00:21:32 10° 200° (SSW) 2,296 6.2 -4.8°
Maximum altitude 00:26:03 32° 264° (W) 1,283 5.1 -5.5°
Drops below altitude 10° 00:30:37 10° 327° (NNW) 2,311 5.6 -6.3°
Sets 00:33:10 0° 338° (NNW) 3,242 6.2 -6.7°
